• Processing (Info)

  • MPEC 2023-S223 : 2023 SU6

    The following Minor Planet Electronic Circular may be linked-to from your own Web pages, but must not otherwise be redistributed electronically.

    A form allowing access to any MPEC is at the bottom of this page.


    Read MPEC 2023-S222 Read MPEC 2023-S224


    M.P.E.C. 2023-S223                           Issued 2023 September 26, 11:18 UT
    
         The Minor Planet Electronic Circulars contain information on unusual
             minor planets, routine data on comets and natural satellites,
             and occasional editorial announcements.  They are published
        on behalf of Division F of the International Astronomical Union by the
              Minor Planet Center, Smithsonian Astrophysical Observatory,
                              Cambridge, MA 02138, U.S.A.
    			  
                 Prepared using the Tamkin Foundation Computer Network
    
                                  MPC@CFA.HARVARD.EDU
                URL https://www.minorplanetcenter.net/    ISSN 1523-6714
    
                                    2023 SU6                                 
    
    
    Observations:
         K23S06U*1C2023 09 24.21730222 31 46.398+29 43 08.47         20.10GVES223G96
         K23S06U 1C2023 09 24.22874422 31 48.770+29 41 57.34         20.08GVES223G96
         K23S06U 1C2023 09 24.23448022 31 49.969+29 41 21.66         20.36GVES223G96
         K23S06U mC2023 09 24.32027622 32 07.890+29 32 23.78               VES223I52
         K23S06U mC2023 09 24.32077522 32 08.016+29 32 20.29         20.22GVES223I52
         K23S06U mC2023 09 24.32309922 32 08.488+29 32 05.60         19.98GVES223I52
         K23S06U KC2023 09 24.81867 22 34 03.54 +28 39 21.0                VES223204
         K23S06U KB2023 09 24.82805622 34 05.90 +28 38 20.4          20.8 GVES223I93
         K23S06U KC2023 09 24.83074 22 34 06.18 +28 38 03.6                VES223204
         K23S06U KB2023 09 24.83253622 34 06.88 +28 37 51.6          19.8 GVES223I93
         K23S06U KB2023 09 24.83683522 34 07.77 +28 37 24.0          20.0 GVES223I93
         K23S06U KC2023 09 24.84288 22 34 08.80 +28 36 45.3          20.2 GVES223204
         K23S06U KC2023 09 24.86164422 34 12.75 +28 34 45.6          19.4 GVES223104
         K23S06U KC2023 09 24.88384522 34 17.56 +28 32 21.2                VES223104
         K23S06U  C2023 09 25.13803122 35 17.673+28 04 39.37         20.0 GVES223654
         K23S06U  C2023 09 25.14204022 35 18.565+28 04 13.08         20.0 GVES223654
         K23S06U KC2023 09 25.16177322 35 22.41 +28 02 04.9          20.1 GXES223858
         K23S06U KC2023 09 25.16863422 35 23.90 +28 01 19.9          20.5 GXES223858
         K23S06U KC2023 09 25.17555922 35 25.40 +28 00 34.4          20.0 GXES223858
         K23S06U  C2023 09 25.29336722 35 53.241+27 47 41.04         19.69iXES223F51
         K23S06U  C2023 09 25.30111722 35 54.912+27 46 49.79         20.14iXES223F51
         K23S06U  C2023 09 25.30350822 35 55.418+27 46 33.61         19.81iXES223F52
         K23S06U  C2023 09 25.30887222 35 56.570+27 45 58.64         20.20iXES223F51
         K23S06U  C2023 09 25.31195622 35 57.241+27 45 37.85         20.36iXES223F52
         K23S06U  C2023 09 25.32040922 35 59.061+27 44 41.50         19.81iXES223F52
         K23S06U  C2023 09 25.32885422 36 00.891+27 43 45.33         20.20iXES223F52
         K23S06U KC2023 09 25.91509622 38 18.18 +26 36 56.3          20.1 GXES223958
         K23S06U KC2023 09 25.92082822 38 19.48 +26 36 18.2          19.6 GXES223958
         K23S06U KC2023 09 25.92656022 38 20.74 +26 35 36.5          19.5 GXES223958
         K23S06U KC2023 09 26.12458922 39 09.44 +26 12 40.8          20.1 GXES223858
         K23S06U KC2023 09 26.13115922 39 10.94 +26 11 55.0          20.1 GXES223858
         K23S06U KC2023 09 26.13766322 39 12.38 +26 11 09.9          19.8 GXES223858
    
    Observer details:
    104 San Marcello Pistoiese.  Observers P. Bacci, M. Maestripieri.  Measurers
        P. Bacci, L. Tesi, G. Fagioli.  0.60-m F4 Reflector + CCD.
    204 Schiaparelli Observatory.  Observers L. Buzzi, G. Galli.  0.84-m f/3.5
        reflector + CCD.
    654 Table Mountain Observatory, Wrightwood-PHMC.  Observers N. Evans, P. Choi,
        N. Saini, C. Zhai, R. Trahan, M. Shao.  1.0-m Reflector + CCD.
    858 Tebbutt Observatory, Edgewood.  Observer F. B. Zoltowski.  0.51-m f/8.1
        Schmidt-Cassegrain + CCD.
    958 Observatoire de Dax.  Observers P. Dupouy, J. B. de Vanssay.  Measurer P.
        Dupouy.  0.43-m f/2.7 Reflector + CCD.
    F51 Pan-STARRS 1, Haleakala.  Observers J. Bulger, T. Lowe, P. Minguez, A.
        Schultz, I. Smith.  Measurers K. Chambers, T. de Boer, J. Bulger, J.
        Fairlamb, H. Gao, M. Huber, C.-C. Lin, T. Lowe, E. Magnier, P. Minguez, Y.
        Ramanjooloo, A. Schultz, I. Smith, R. Wainscoat, R. Weryk.  1.8-m Ritchey-
        Chretien + CCD.
    F52 Pan-STARRS 2, Haleakala.  Observers J. Bulger, T. Lowe, P. Minguez, A.
        Schultz, I. Smith.  Measurers K. Chambers, T. de Boer, J. Bulger, J.
        Fairlamb, H. Gao, M. Huber, C.-C. Lin, T. Lowe, E. Magnier, P. Minguez, Y.
        Ramanjooloo, A. Schultz, I. Smith, R. Wainscoat, R. Weryk.  1.8-m Ritchey-
        Chretien + CCD.
    G96 Mt. Lemmon Survey.  Observer K. W. Wierzchos.  Measurers E. J.
        Christensen, D. Fay, J. B. Fazekas, D. C. Fuls, A. R. Gibbs, A. D. Grauer,
        H. Groeller, J. K. Hogan, R. A. Kowalski, S. M. Larson, G. J. Leonard, D.
        Rankin, R. L. Seaman, A. Serrano, F. C. Shelly, K. W. Wierzchos.  1.5-m
        reflector + 10K CCD.
    I52 Steward Observatory, Mt. Lemmon Station.  Observer A. Serrano.  Measurers
        E. J. Christensen, D. Fay, J. B. Fazekas, D. C. Fuls, A. R. Gibbs, A. D.
        Grauer, H. Groeller, J. K. Hogan, R. A. Kowalski, S. M. Larson, G. J.
        Leonard, D. Rankin, R. L. Seaman, A. Serrano, F. C. Shelly, K. W.
        Wierzchos.  1.0-m prime focus + CCD.
    I93 St Pardon de Conques.  Observer F. Losse.  0.40-m f/3.7 reflector + CMO.
    
    Orbital elements:
    2023 SU6                                                 Earth MOID = 0.1647 AU
    Epoch 2023 Sept. 13.0 TT = JDT 2460200.5                Veres                   
    M 351.66497              (2000.0)            P               Q                  
    n   0.26748927     Peri.  186.20164     +0.95929854     -0.26778441             
    a   2.3856046      Node   190.70001     +0.27538226     +0.95739028             
    e   0.5124173      Incl.   28.87334     +0.06253732     -0.10814507             
    P   3.68           H   21.96          G   0.15           U   9                  
    Residuals in seconds of arc
    230924 G96  0.0   0.1+    230924 204  0.3+  0.3+    230925 F51  0.1-  0.6+
    230924 G96  0.1-  0.0     230924 104  0.4-  0.3+    230925 F52  0.0   0.2+
    230924 G96  0.0   0.0     230924 104  0.1-  0.3-    230925 F52  0.0   0.0
    230924 I52  0.2-  0.3+    230925 654  0.1-  0.3+    230925 F52  0.2+  0.0
    230924 I52  0.1+  0.1-    230925 654  0.1+  0.2+    230925 958  1.4-  2.9-
    230924 I52  0.2-  0.1-    230925 858  0.1-  0.1+    230925 958  1.1-  1.3-
    230924 204  0.2+  0.2+    230925 858  0.0   0.2+    230925 958  1.3-  3.4-
    230924 I93  0.2+  0.3+    230925 858  0.0   0.3+    230926 858  0.2+  0.6-
    230924 204  0.4+  0.4+    230925 F51  0.1+  0.2+    230926 858  0.4+  0.7-
    230924 I93  0.3+  0.3+    230925 F51  0.1+  0.3+    230926 858  0.1+  0.5-
    230924 I93  0.3-  0.3+    230925 F52  0.0   0.0
    
    Ephemeris:
    2023 SU6                 a,e,i = 2.39, 0.51, 29                  q = 1.1632
    Date    TT    R. A. (2000) Decl.     Delta      r    Elong.  Phase     V
    2023 08 27    21 31 57.5 +49 41 49   0.4394  1.2826   119.0    43.5    22.4
    ...
    2023 09 11    21 53 27.3 +44 28 19   0.3125  1.2223   127.4    40.9    21.5
    ...
    2023 09 19    22 14 00.9 +37 17 53   0.2514  1.1978   135.8    35.8    20.8
    ...
    2023 09 25    22 34 43.8 +28 20 00   0.2129  1.1835   144.8    29.2    20.2
    2023 09 26    22 38 38.0 +26 27 27   0.2074  1.1814   146.5    27.9    20.1
    2023 09 27    22 42 39.5 +24 27 51   0.2023  1.1795   148.3    26.5    20.0
    ...
    2023 10 03    23 09 09.6 +10 09 14   0.1805  1.1701   158.0    18.7    19.5
    ...
    2023 10 11    23 48 50.7 -11 54 26   0.1810  1.1637   153.8    22.3    19.6
    ...
    2023 10 26    01 01 55.1 -38 40 05   0.2604  1.1710   127.4    42.4    21.0
    
    M. P. C. Staff               (C) Copyright 2023 MPC           M.P.E.C. 2023-S223
    


    Read MPEC 2023-S222 Read MPEC 2023-S224


    MPEC number:

    Enter an MPEC number in one of the following forms:

    • 1997-B01 (the full form)
    • J97B01 (the packed version of the full form)
    • B01 (the abbreviated form)